Regional Weather Roundup
Issued by NWS

Home | Current Version | Previous Version | Graphics & Text | Print | Product List | Glossary On
Versions: 1 2 3 4 5 6 7 8 9 10 11 12 13 14 15 16 17 18 19 20 21 22 23 24 25 26 27 28 29 30 31 32 33 34 35 36 37 38 39 40 41 42 43 44 45 46 47 48 49 50
000
ASUS45 KSLC 312010
RWRUT

UTAH REGIONAL WEATHER ROUNDUP
NATIONAL WEATHER SERVICE SALT LAKE CITY UT
200 PM MDT SUN AUG 31 2014

UTZ001>011-023>025-312100-

NORTHERN UTAH

CITY           SKY/WX    TMP DP  RH WIND       PRES   REMARKS
HILL AFB       SUNNY     70  39  32 W9G20     30.07S
LOGAN          MOSUNNY   69  42  37 VRB6      30.04F
OGDEN          SUNNY     72  37  28 W16       30.05S
PROVO AIRPORT  MOSUNNY   73  43  33 NW6       30.05S
SALT LAKE CITY MOSUNNY   74  39  28 NW18G28   30.03F
VERNAL         SUNNY     74  41  30 S6        29.95F
WENDOVER       SUNNY     73  39  29 E6        30.04F
HEBER CITY     SUNNY     73  41  31 SW14G21   30.05S
WEST JORDAN    SUNNY     73  48  40 NW15      30.05F

$$

UTZ012>022-026-027-312100-

SOUTHERN UTAH

CITY           SKY/WX    TMP DP  RH WIND       PRES   REMARKS
BRYCE CANYON   SUNNY     76  26  15 NW15G25   30.17F
CEDAR CITY     SUNNY     82  26  13 VRB5      30.05F
MILFORD        SUNNY     81  36  19 NW8       30.03F
MOAB/CYNLANDS  SUNNY     88  31  13 W12G20    29.87F
PRICE          SUNNY     80  25  13 W22G32    30.03S
ST GEORGE      CLEAR     95  39  14 W9        29.87F HX  91
KANAB            N/A     90  32  12 SW16G26   30.02F

$$

REGIONAL REPORTS     COLORADO/ARIZONA

CITY           SKY/WX    TMP DP  RH WIND       PRES   REMARKS
CRAIG, CO      MOSUNNY   65  46  50 CALM      30.05F
GRAND JUNCTION MOSUNNY   87  30  13 W25G35    29.90S
RIFLE          MOSUNNY   83  32  16 W28G38    29.92F
MONTROSE       MOSUNNY   82  35  18 SW15G28   29.99F
CORTEZ         MOSUNNY   86  34  15 W9G22     30.05F
PAGE, AZ       SUNNY     94  34  12 W9G20     29.92F
GRAND CANYON   SUNNY     81  37  20 SW16G33   30.18F
KINGMAN        SUNNY     96  39  13 SW20      29.94S HX  91
FLAGSTAFF      SUNNY     76  40  27 SW20G28   30.23S

$$

REGIONAL REPORTS    NEVADA/IDAHO/WYOMING

CITY           SKY/WX    TMP DP  RH WIND       PRES   REMARKS
LAS VEGAS, NV  MOSUNNY   99  28   8 VRB6      29.78F HX  92
ELY            SUNNY     74  29  19 W9G17     30.13F
ELKO           SUNNY     75  32  20 W13G21    30.07F
POCATELLO, ID  MOSUNNY   66  41  40 W17G25    30.07S
BURLEY         SUNNY     66  42  41 W12G23    30.05F
EVANSTON, WY   MOSUNNY   62  34  35 W20G35    30.13R
ROCK SPRINGS   MOSUNNY   65  35  33 W28G38    30.05F

$$


USA.gov is the U.S. government's official web portal to all federal, state and local government web resources and services.